Location: Dammartin
(48.9032°N, 1.6195°E)
Time: 11:08:08
(UTC+00:00)

Cosmos 1190 Rocket - Pass Details

Date: 03 February 2023
Orbit: 756 x 778 km, 74.1° (Epoch: 29 March)

Event Time Altitude Azimuth Distance (km) Brightness Sun altitude
Rises 17:33:14 0° 187° (S) 3,247 7.6 -6.9°
Reaches altitude 10° 17:35:39 10° 183° (S) 2,323 6.8 -7.3°
Maximum altitude 17:40:47 55° 107° (ESE) 929 4.2 -8.1°
Drops below altitude 10° 17:45:57 10° 31° (NNE) 2,330 6.1 -8.9°
Sets 17:48:22 0° 27° (NNE) 3,258 6.9 -9.3°
